sat.trackr.live / text

‹ back to catalog

KORSAT-2

NORAD 62377 · 2024-247A

PAYLOAD ACTIVE UNKNOWN

§ Identity

Operator
Country
SKOR
Launch date
2024-12-21
Launch site
AFWTR
Launch vehicle
Mass (kg)
RCS (m²)

External: N2YO · Heavens-Above · Gunter

§ Orbital elements

Epoch: 2026-09-22T02:39:29.446272Z

Period
96.08 min
Inclination
45.4101°
Eccentricity
0.0001652
Mean motion
14.98800594 rev/d
Perigee alt
569.5 km
Apogee alt
571.7 km
Semi-major
6,948.7 km
B*
1.5987e-4
RAAN
285.3468°
Arg perigee
336.3404°
Mean anomaly
23.7398°
Rev number
9,610

§ Raw data

KORSAT-21 62377U 24247A   26265.11075748  .00001728  00000+0  15987-3 0  99982 62377  45.4101 285.3468 0001652 336.3404  23.7398 14.98800594 96101

JSON: /api/v1/satellites/62377 · /tle

For live sub-satellite position, see the globe view (requires WebGL).

§ Visibility from observer

Set your observer location to see the next 7 days of passes ≥ 10°. The values pass through the URL so the page stays shareable.

No JS? Fill the form by hand. The geolocation button needs JavaScript.